Date String (YYYY-MM-DD hh:mm:ss) UTC,Instrument flags,absolute air pressure of the measurement (hPa),sample flow rate (lpm),inlet stack bypass flow (lpm),air temperature of the measurement (°C),ambient temperature measured by the external sensor (°C),aerosol sample conditioner tube jacket temperature (°C),OPC LED temperature (°C),internal box temperature (°C),relative humidity of the measurement (%),span deviation,mass concentration of particles derived from Lorenz-Mie calculation of OPC scattering (μg/m³),mass concentration of particles derived from Lorenz-Mie calculation of OPC scattering (μg/m³),mass concentration of particles derived from Lorenz-Mie calculation of OPC scattering (μg/m³)
DateTimeUTC,F1_M11,P_M11,Q1_M11,Q2_M11,T1_M11,T2_M11,T3_M11,T4_M11,T5_M11,U1_M11,ZSPAN_M11,X0_M11,X2_M11,X1_M11
2024-02-06 13:00:00,SystemResetWarning,0825.6,5.00,000.00,018.8,018.2,000.0,027.2,020.4,18.9,0000.0,0002.81,0002.12,0001.80
2024-02-06 13:01:00,SystemResetWarning,0825.5,5.00,000.00,018.8,018.2,000.0,027.1,020.4,18.9,0000.0,0002.91,0002.17,0001.84
2024-02-06 13:02:00,SystemResetWarning,0825.4,5.00,000.00,018.8,018.2,000.0,027.1,020.4,19.0,0000.0,0002.98,0002.22,0001.89
2024-02-06 13:03:00,SystemResetWarning,0825.5,4.99,000.00,018.8,018.2,000.0,027.1,020.4,19.3,0000.0,0002.97,0002.24,0001.92
2024-02-06 13:04:00,SystemResetWarning,0825.6,5.00,000.00,018.7,018.2,000.0,027.1,020.4,19.1,0000.0,0003.28,0002.26,0001.94
2024-02-06 13:05:00,SystemResetWarning,0825.7,5.01,000.00,018.7,018.2,000.0,027.1,020.4,18.7,0000.0,0003.93,0002.29,0001.97
2024-02-06 13:06:00,SystemResetWarning,0825.6,5.01,000.00,018.7,018.2,000.0,027.1,020.4,18.5,0000.0,0003.99,0002.33,0002.00
2024-02-06 13:07:00,SystemResetWarning,0825.5,5.01,000.00,018.7,018.2,000.0,027.1,020.4,18.5,0000.0,0004.05,0002.35,0002.01
2024-02-06 13:08:00,SystemResetWarning,0825.4,4.98,000.00,018.7,018.2,000.0,027.1,020.4,18.3,0000.0,0004.08,0002.36,0002.01
2024-02-06 13:09:00,SystemResetWarning,0825.5,5.00,000.00,018.7,018.1,000.0,027.1,020.4,18.2,0000.0,0003.93,0002.27,0001.96
2024-02-06 13:10:00,SystemResetWarning,0825.5,5.01,000.00,018.7,018.1,000.0,027.1,020.4,18.3,0000.0,0003.74,0002.14,0001.85
2024-02-06 13:11:00,SystemResetWarning,0825.6,5.01,000.00,018.7,018.1,000.0,027.1,020.4,18.2,0000.0,0003.57,0002.00,0001.73
2024-02-06 13:12:00,SystemResetWarning,0825.6,5.00,000.00,018.7,018.1,000.0,027.1,020.4,17.9,0000.0,0003.34,0001.86,0001.63
2024-02-06 13:13:00,SystemResetWarning,0825.6,4.98,000.00,018.7,018.1,000.0,027.1,020.3,18.1,0000.0,0003.19,0001.74,0001.52
2024-02-06 13:14:00,SystemResetWarning,0825.6,5.00,000.00,018.7,018.1,000.0,027.1,020.3,18.4,0000.0,0003.11,0001.63,0001.41
2024-02-06 13:15:00,SystemResetWarning,0825.5,5.01,000.00,018.7,018.1,000.0,027.1,020.3,18.2,0000.0,0002.73,0001.52,0001.31
2024-02-06 13:16:00,SystemResetWarning,0825.5,5.00,000.00,018.7,018.1,000.0,027.1,020.3,18.1,0000.0,0001.86,0001.40,0001.20
2024-02-06 13:17:00,SystemResetWarning,0825.5,4.99,000.00,018.7,018.1,000.0,027.1,020.3,18.3,0000.0,0001.80,0001.32,0001.09
2024-02-06 13:18:00,SystemResetWarning,0825.5,4.99,000.00,018.7,018.1,000.0,027.1,020.3,18.4,0000.0,0001.67,0001.21,0000.99
2024-02-06 13:19:00,SystemResetWarning,0825.6,5.01,000.00,018.7,018.1,000.0,027.1,020.3,18.5,0000.0,0001.43,0001.06,0000.88
2024-02-06 13:20:00,SystemResetWarning,0825.6,5.01,000.00,018.7,018.1,000.0,027.1,020.3,18.6,0000.0,0001.33,0000.97,0000.80
2024-02-06 13:21:00,SystemResetWarning,0825.6,4.98,000.00,018.7,018.1,000.0,027.1,020.3,18.8,0000.0,0001.26,0000.92,0000.74
2024-02-06 13:22:00,SystemResetWarning,0825.6,5.00,000.00,018.7,018.0,000.0,027.1,020.3,18.9,0000.0,0001.50,0000.93,0000.73
2024-02-06 13:23:00,SystemResetWarning,0825.5,5.01,000.00,018.7,018.0,000.0,027.0,020.3,19.0,0000.0,0001.56,0000.94,0000.72
2024-02-06 13:24:00,SystemResetWarning,0825.5,5.01,000.00,018.7,018.0,000.0,027.0,020.3,18.6,0000.0,0001.75,0000.95,0000.71
2024-02-06 13:25:00,SystemResetWarning,0825.5,4.99,000.00,018.6,018.0,000.0,027.0,020.3,18.4,0000.0,0002.18,0000.95,0000.71
2024-02-06 13:26:00,SystemResetWarning,0825.5,5.00,000.00,018.6,018.0,000.0,027.0,020.3,18.4,0000.0,0002.76,0000.98,0000.70
2024-02-06 13:27:00,SystemResetWarning,0825.6,4.99,000.00,018.6,018.0,000.0,027.0,020.3,18.3,0000.0,0004.12,0001.01,0000.70
2024-02-06 13:28:00,SystemResetWarning,0825.5,5.00,000.00,018.6,018.0,000.0,027.0,020.3,18.3,0000.0,0004.09,0000.99,0000.70
2024-02-06 13:29:00,SystemResetWarning,0825.5,5.01,000.00,018.6,018.0,000.0,027.0,020.2,18.3,0000.0,0004.18,0000.98,0000.70
2024-02-06 13:30:00,SystemResetWarning,0825.6,5.00,000.00,018.6,018.0,000.0,027.0,020.2,18.3,0000.0,0004.39,0001.03,0000.70
2024-02-06 13:31:00,SystemResetWarning,0825.6,4.99,000.00,018.6,018.0,000.0,027.0,020.2,18.3,0000.0,0005.91,0001.11,0000.72
2024-02-06 13:32:00,SystemResetWarning,0825.7,5.00,000.00,018.6,018.0,000.0,027.0,020.3,18.4,0000.0,0006.30,0001.14,0000.74
2024-02-06 13:33:00,SystemResetWarning,0825.7,5.01,000.00,018.6,018.0,000.0,027.0,020.2,18.3,0000.0,0006.27,0001.16,0000.76
2024-02-06 13:34:00,SystemResetWarning,0825.7,5.00,000.00,018.6,018.0,000.0,027.0,020.2,18.2,0000.0,0006.14,0001.15,0000.77
2024-02-06 13:35:00,SystemResetWarning,0825.6,5.00,000.00,018.6,018.0,000.0,027.0,020.2,18.2,0000.0,0006.21,0001.17,0000.78
2024-02-06 13:36:00,SystemResetWarning,0825.6,5.00,000.00,018.6,018.0,000.0,027.0,020.2,18.1,0000.0,0005.83,0001.16,0000.78
2024-02-06 13:37:00,SystemResetWarning,0825.6,5.00,000.00,018.6,018.0,000.0,027.0,020.2,18.2,0000.0,0005.51,0001.14,0000.79
2024-02-06 13:38:00,SystemResetWarning,0825.7,5.00,000.00,018.6,018.0,000.0,027.0,020.2,18.1,0000.0,0004.14,0001.13,0000.81
2024-02-06 13:39:00,SystemResetWarning,0825.7,5.00,000.00,018.6,018.0,000.0,027.0,020.2,18.1,0000.0,0003.85,0001.13,0000.82
2024-02-06 13:40:00,SystemResetWarning,0825.7,5.00,000.00,018.6,018.0,000.0,027.0,020.2,18.1,0000.0,0003.76,0001.13,0000.82
2024-02-06 13:41:00,SystemResetWarning,0825.6,4.99,000.00,018.6,018.0,000.0,027.0,020.2,18.1,0000.0,0003.72,0001.14,0000.84
2024-02-06 13:42:00,SystemResetWarning,0825.5,4.99,000.00,018.6,018.1,000.0,027.0,020.2,18.1,0000.0,0002.51,0001.08,0000.85
2024-02-06 13:43:00,SystemResetWarning,0825.4,5.00,000.00,018.6,018.1,000.0,027.0,020.2,18.2,0000.0,0002.41,0001.09,0000.85
2024-02-06 13:44:00,SystemResetWarning,0825.4,5.00,000.00,018.6,018.0,000.0,027.0,020.2,18.2,0000.0,0003.38,0001.06,0000.85
2024-02-06 13:45:00,SystemResetWarning,0825.5,5.00,000.00,018.6,018.1,000.0,027.0,020.2,18.2,0000.0,0003.48,0001.10,0000.87
2024-02-06 13:46:00,SystemResetWarning,0825.5,5.00,000.00,018.6,018.1,000.0,027.0,020.2,18.3,0000.0,0003.46,0001.13,0000.88
2024-02-06 13:47:00,SystemResetWarning,0825.5,5.00,000.00,018.6,018.1,000.0,027.0,020.2,18.5,0000.0,0003.41,0001.16,0000.88
2024-02-06 13:48:00,SystemResetWarning,0825.6,5.01,000.00,018.6,018.1,000.0,027.0,020.2,18.5,0000.0,0003.48,0001.21,0000.89
2024-02-06 13:49:00,SystemResetWarning,0825.6,5.00,000.00,018.6,018.1,000.0,027.0,020.2,18.5,0000.0,0003.50,0001.21,0000.89
2024-02-06 13:50:00,SystemResetWarning,0825.6,5.00,000.00,018.6,018.1,000.0,027.0,020.2,18.3,0000.0,0003.48,0001.20,0000.89
2024-02-06 13:51:00,SystemResetWarning,0825.6,5.00,000.00,018.6,018.1,000.0,026.9,020.2,18.2,0000.0,0003.52,0001.21,0000.89
2024-02-06 13:52:00,SystemResetWarning,0825.6,4.99,000.00,018.6,018.1,000.0,026.9,020.2,18.2,0000.0,0003.42,0001.18,0000.90
2024-02-06 13:53:00,SystemResetWarning,0825.6,4.99,000.00,018.6,018.1,000.0,026.9,020.2,18.4,0000.0,0003.46,0001.18,0000.89
2024-02-06 13:54:00,SystemResetWarning,0825.6,5.00,000.00,018.6,018.1,000.0,026.9,020.2,18.5,0000.0,0003.18,0001.18,0000.89
2024-02-06 13:55:00,SystemResetWarning,0825.5,5.01,000.00,018.6,018.1,000.0,026.9,020.2,18.6,0000.0,0001.93,0001.19,0000.89
2024-02-06 13:56:00,SystemResetWarning,0825.5,5.00,000.00,018.6,018.1,000.0,026.9,020.2,18.7,0000.0,0002.82,0001.16,0000.88
2024-02-06 13:57:00,SystemResetWarning,0825.5,5.00,000.00,018.6,018.1,000.0,026.9,020.2,18.8,0000.0,0003.27,0001.13,0000.88
2024-02-06 13:58:00,SystemResetWarning,0825.6,4.99,000.00,018.6,018.1,000.0,026.9,020.2,18.9,0000.0,0003.33,0001.16,0000.89
2024-02-06 13:59:00,SystemResetWarning,0825.6,5.00,000.00,018.6,018.1,000.0,026.9,020.2,18.9,0000.0,0003.25,0001.13,0000.91
